Tracking 30009 objects as of 7-Dec-2024
HD Live streaming from Space Station
objects crossing your sky now

STARLINK-2164

Track STARLINK-2164 now!
10-day predictions
STARLINK-2164 is classified as:


NORAD ID: 47750
Int'l Code: 2021-017AE
Perigee: 553.6 km
Apogee: 555.2 km
Inclination: 53.1 °
Period: 95.6 minutes
Semi major axis: 6925 km
RCS: Unknown
Launch date: March 4, 2021
Source: United States (US)
Launch site: AIR FORCE EASTERN TEST RANGE (AFETR)
Your satellite tracking list
Your tracking list is empty




NASA's NSSDC Master Catalog

Two Line Element Set (TLE):
1 47750U 21017AE  24342.58996651 -.00000820  00000-0 -36168-4 0  9998
2 47750  53.0545  93.6118 0001099  74.1384 285.9726 15.06382960208976
Source of the keplerian elements: AFSPC